Regional Weather Roundup
Issued by NWS

Home | Current Version | Previous Version | Text Only | Print | Product List | Glossary On
Versions: 1 2 3 4 5 6 7 8 9 10 11 12 13 14 15 16 17 18 19 20 21 22 23 24 25 26 27 28 29 30 31 32 33 34 35 36 37 38 39 40 41 42 43 44 45 46 47 48 49 50
000
ASUS43 KMPX 231901
RWRMN
WEATHER ROUNDUP FOR MINNESOTA
NATIONAL WEATHER SERVICE TWIN CITIES/CHANHASSEN MN
200 PM CDT TUE AUG 23 2016


NOTE: "FAIR" INDICATES FEW OR NO CLOUDS BELOW 12,000 FEET WITH NO
SIGNIFICANT WEATHER AND/OR OBSTRUCTIONS TO VISIBILITY. N/A MEANS
CURRENT SKY AND/OR WEATHER CONDITIONS ARE NOT AVAILABLE.

MNZ060>063-068>070-232000-
   Twin Cities Metro

CITY           SKY/WX    TMP DP  RH WIND       PRES   REMARKS
TWIN CITIES    PTSUNNY   83  68  60 S20       29.91S
ST PAUL        PTSUNNY   83  70  64 S15G30    29.91F
CRYSTAL        PTSUNNY   82  66  58 S14G24    29.89F
BLAINE         PTSUNNY   84  70  61 S15G24    29.90F
LAKEVILLE      PTSUNNY   79  70  73 S13       29.93S
EDEN PRAIRIE   CLOUDY    85  70  60 S14G26    29.90F
LAKEVILLE      PTSUNNY   79  70  73 S13       29.93S
SOUTH ST PAUL  PTSUNNY   83  68  59 S12G22    29.92F
LAKE ELMO      FAIR      81  70  69 S12       29.94S
$$
MNZ001>005-007-008-013>017-022>024-027-028-232000-
   Northwest Minnesota

CITY           SKY/WX    TMP DP  RH WIND       PRES   REMARKS
BEMIDJI        SUNNY     82  67  60 S17G23    29.76F
HALLOCK        CLOUDY    82  66  57 S18G24    29.63S
ROSEAU         CLOUDY    82  70  65 S13G20    29.70R
WARROAD        CLOUDY    81  70  69 SE15G22   29.69S
THIEF RVR FALL CLOUDY    83  67  58 S20       29.66F
CROOKSTON      MOSUNNY   84  66  54 S24G33    29.64F
FOSSTON        SUNNY     82  64  54 S20G25    29.72S
DETROIT LAKES  SUNNY     82  66  57 S18       29.77F
MOORHEAD       SUNNY     84  64  51 S22G29    29.70S
PARK RAPIDS    SUNNY     85  66  53 S17       29.79F
MAHNOMEN       FAIR      82  68  62 S12G20    29.73S
$$
MNZ006-009>011-018-025>026-232000-
   North Central Minnesota

CITY           SKY/WX    TMP DP  RH WIND       PRES   REMARKS
BAUDETTE       PTSUNNY   79  66  64 SE13      29.73S
FLAG ISLAND    SUNNY     75  66  73 SE6       29.69F
INTL FALLS     PTSUNNY   78  66  66 SE14G20   29.77F
WASKISH        CLOUDY    81  68  65 SE10G17   29.73F
BIG FORK       PTSUNNY   82  68  61 S13       29.79F
LONGVILLE      SUNNY     82  66  57 S13G20    29.82F
GRAND RAPIDS   SUNNY     81  66  60 S17G23    29.85F
CRANE LAKE     PTSUNNY   79  64  61 SE8       29.82F
ORR            CLOUDY    81  63  54 SE8G16    29.79F
COOK           MOSUNNY   81  66  61 S10       29.83F
WALKER         FAIR      82  67  61 SE13      29.79F
$$
MNZ012-019>021-037-232000-
   Northeast Minnesota

CITY           SKY/WX    TMP DP  RH WIND       PRES   REMARKS
DULUTH         MOSUNNY   82  67  60 S15       29.89F
ELY            CLOUDY    82  63  51 S9G16     29.86F
HIBBING        SUNNY     80  65  59 S12G21    29.84F
EVELETH        SUNNY     81  64  55 S13G18    29.87F
DULUTH HARBOR  MOSUNNY   84  68  58 SW14      29.86F
TWO HARBORS    SUNNY     82  70  65 S10G18    29.87F
SILVER BAY     SUNNY     81  64  57 S14G20    29.88F
GRAND MARAIS     N/A     72  62  71 CALM      29.90F
G MARAIS ARPRT CLOUDY    72  61  68 S7        29.95S
$$
MNZ029>031-032-039>041-046>048-054>057-064-232000-
   West Central Minnesota

CITY           SKY/WX    TMP DP  RH WIND       PRES   REMARKS
FERGUS FALLS     N/A     82  68  61 S23       29.77S
WHEATON        LGT RAIN  84  70  61 S15G24    29.77F
MORRIS         MOSUNNY   84  68  58 S20G26    29.79S
ALEXANDRIA     SUNNY     81  67  62 S18G24    29.84S
ELBOW LAKE     FAIR      82  69  66 S18G26    29.79S
WADENA         SUNNY     82  66  57 S14G21    29.80S
GLENWOOD       MOSUNNY   82  68  61 S20G25    29.85S
APPLETON       SUNNY     82  68  61 S12G18    29.79F
BENSON         CLOUDY    82  66  57 SW20      29.82R
ORTONVILLE     SUNNY     82  66  57 S14       29.78S
MADISON        MOSUNNY   81  66  61 S16       29.80S
WILLMAR        FAIR      82  72  69 S14       29.87R
$$
MNZ033>034-036-042>043-049>051-058-059-232000-
   Central Minnesota

CITY           SKY/WX    TMP DP  RH WIND       PRES   REMARKS
ST CLOUD       CLOUDY    82  70  66 S15G22    29.87F
SAUK CENTRE    FAIR      82  69  64 S15G21    29.85S
PAYNESVILLE    MOSUNNY   80  67  65 SE14      29.87S
AITKIN         SUNNY     82  63  51 SE18      29.84F
PINE RIVER     SUNNY     82  68  61 SE14G21   29.85F
BRAINERD       SUNNY     81  67  62 S16G25    29.85S
STAPLES        SUNNY     82  66  57 S16       29.82S
LONG PRAIRIE   FAIR      79  68  69 SE16      29.85S
LITTLE FALLS   SUNNY     81  64  57 S14G20    29.86S
LITCHFIELD     PTSUNNY   79  72  78 SE9       29.89S
BUFFALO        CLOUDY    80  67  64 S9G17     29.90S
MAPLE LAKE     PTSUNNY   82  71  69 S7G18     29.90R
HUTCHINSON     CLOUDY    80  71  74 S10G24    29.89F
$$
MNZ037-044-045-052-053-232000-
   East Central Minnesota

CITY           SKY/WX    TMP DP  RH WIND       PRES   REMARKS
PRINCETON      MOSUNNY   84  70  61 S15       29.88F
MORA           SUNNY     79  63  57 S9        29.91S
CAMBRIDGE      SUNNY     84  66  54 S15       29.88S
RUSH CITY      MOSUNNY   81  67  61 S10G20    29.90S
MOOSE LAKE     SUNNY     79  64  61 S8        29.87S
HINCKLEY       FAIR      81  68  65 SE9       29.90F
CLOQUET        CLOUDY    81  64  57 S13       29.89S
MCGREGOR       SUNNY     81  66  61 S13G20    29.87S
$$
MNZ071>073-080-081-089-090-097-098-232000-
   Southwest Minnesota

CITY           SKY/WX    TMP DP  RH WIND       PRES   REMARKS
MONTEVIDEO     CLOUDY    82  70  65 SW14G23   29.85R
GRANITE FALLS  CLOUDY    81  72  74 SE15G21   29.85F
CANBY          CLOUDY    80  68  66 S15G23    29.83S
MARSHALL       CLOUDY    78  70  76 S20G29    29.84S
REDWOOD FALLS  CLOUDY    81  70  69 S15G24    29.85F
OLIVIA         CLOUDY    79  70  73 S12G17    29.86S
PIPESTONE      CLOUDY    72  68  88 S10       29.87S
WINDOM         PTSUNNY   77  68  73 S13G18    29.90S
WORTHINGTON    RAIN      71  70  96 S8        29.91S
JACKSON        PTSUNNY   77  68  73 S12G20    29.91S
TRACY          CLOUDY    77  70  79 S10G16    29.87S
$$
MNZ065>067-074>077-082>085-091>093-232000-
   South Central Minnesota

CITY           SKY/WX    TMP DP  RH WIND       PRES   REMARKS
MANKATO        PTSUNNY   82  70  65 S13G23    29.91F
NEW ULM        PTSUNNY   81  72  74 S16       29.88F
ST JAMES       PTSUNNY   75  64  69 SE14G23   29.90F
GLENCOE        PTSUNNY   83  73  71 S10G17    29.89F
FARIBAULT      MOSUNNY   82  70  65 S17G24    29.94F
OWATONNA       MOSUNNY   81  68  65 S17G23    29.95F
WASECA         MOSUNNY   79  70  73 S20       29.95F
$$
MNZ078>079-086>088-094>096-232000-
   Southeast Minnesota

CITY           SKY/WX    TMP DP  RH WIND       PRES   REMARKS
ROCHESTER      MOSUNNY   80  67  64 S16G30    30.00F
RED WING       MOSUNNY   84  64  51 S13G22    29.94F
STANTON        CLOUDY    82  70  65 S14G23    29.93F
DODGE CENTER   SUNNY     81  66  61 S21       29.98F
WINONA         MOSUNNY   81  64  57 S7G21     29.99F
AUSTIN         CLOUDY    79  64  61 S21       29.98F
PRESTON        CLOUDY    78  65  64 S15       30.03S
$$
ABBREVIATIONS USED IN REMARKS
   TC - TEMPERATURES IN CELSIUS
  WCI - WIND CHILL INDEX
   HX - HEAT INDEX
  VSB - VISIBILITY
$$




USA.gov is the U.S. government's official web portal to all federal, state and local government web resources and services.